Weather History for YBCS - April, 2014

Change the Weather History Date:

Friday, April 25, 2014

  Actual Average Record
Temperature  
Mean Temperature 76 °F -  
Max Temperature 78 °F 82 °F 86 °F (2001)
Min Temperature 73 °F 68 °F 64 °F (2008)
Cooling Degree Days 10    
Growing Degree Days 26 (Base 50)    
Moisture  
Dew Point 73 °F    
Average Humidity 90    
Maximum Humidity 100    
Minimum Humidity 81    
Precipitation  
Precipitation 1.54 in 0.17 in - ()
Sea Level Pressure  
Sea Level Pressure 29.87 in    
Wind  
Wind Speed 10 mph ()    
Max Wind Speed 17 mph    
Max Gust Speed -    
Visibility 5.0 miles    
Events Rain    
Averages and records for this station are not official NWS values.
T = Trace of Precipitation, MM = Missing Value Source: Averaged Metar Reports

Daily Weather History Graph

Daily Weather History Graph

Search for Another Location

Airport or City:

Trip Planner

Search our weather history database for the weather conditions in past years. The results will help you decide how hot, cold, wet, or windy it might be!

Date:

Astronomy

Apr. 25, 2014 Rise Set
Actual Time 6:27 AM AEST 6:02 PM AEST
Civil Twilight 6:05 AM AEST 6:24 PM AEST
Nautical Twilight 5:39 AM AEST 6:49 PM AEST
Astronomical Twilight 5:14 AM AEST 7:15 PM AEST
Moon 2:23 AM AEST (4/25) 2:59 PM AEST (4/25)
Length of Visible Light 12h 18m
Length of Day
11h 34m
Waning Crescent, 20% of the Moon is Illuminated
Apr 25
Waning Crescent
Apr 29
New
May 7
First Quarter
May 15
Full
May 21
Last Quarter

Hourly Weather History & Observations

Time (AEST) Temp. Dew Point Humidity Pressure Visibility Wind Dir Wind Speed Gust Speed Precip Events Conditions
12:00 AM 76 °F 73 °F 87% 29.88 in - South 11.5 mph - -   Overcast
12:00 AM 77.0 °F 73.4 °F 89% 29.86 in 6.2 mi South 11.5 mph - N/A   Mostly Cloudy
12:30 AM 77.0 °F 73.4 °F 89% 29.86 in 6.2 mi South 10.4 mph - N/A   Mostly Cloudy
1:00 AM 77 °F 72 °F 81% 29.86 in - South 11.5 mph - -  
1:00 AM 77.0 °F 71.6 °F 83% 29.86 in 6.2 mi South 11.5 mph - N/A   Mostly Cloudy
1:30 AM 77.0 °F 73.4 °F 89% 29.83 in 6.2 mi South 11.5 mph - N/A   Mostly Cloudy
2:00 AM 77.0 °F 71.6 °F 83% 29.83 in 6.2 mi South 10.4 mph - N/A Rain Light Rain Showers
2:30 AM 77.0 °F 71.6 °F 83% 29.83 in 6.2 mi South 11.5 mph - N/A   Mostly Cloudy
3:00 AM 76 °F 72 °F 85% 29.83 in - South 10.4 mph - -  
3:00 AM 77.0 °F 71.6 °F 83% 29.83 in 6.2 mi South 10.4 mph - N/A   Mostly Cloudy
3:30 AM 77.0 °F 73.4 °F 89% 29.80 in 6.2 mi South 11.5 mph - N/A   Mostly Cloudy
4:00 AM 77 °F 73 °F 83% 29.83 in - South 12.7 mph - -  
4:00 AM 77.0 °F 73.4 °F 89% 29.80 in 6.2 mi South 12.7 mph - N/A Rain Light Rain Showers
4:30 AM 75.2 °F 73.4 °F 94% 29.80 in 6.2 mi South 10.4 mph - N/A   Mostly Cloudy
5:00 AM 77.0 °F 73.4 °F 89% 29.83 in 6.2 mi South 10.4 mph - N/A Rain Light Rain Showers
5:30 AM 75.2 °F 73.4 °F 94% 29.83 in 5.0 mi South 11.5 mph - N/A Rain Light Rain Showers
6:00 AM 76 °F 73 °F 86% 29.84 in - South 10.4 mph - -   Overcast
6:00 AM 77.0 °F 73.4 °F 89% 29.83 in 6.2 mi South 10.4 mph - N/A Rain Light Rain Showers
6:14 AM 75.2 °F 73.4 °F 94% 29.83 in 3.7 mi SSE 11.5 mph - N/A Rain Light Rain Showers
6:30 AM 75.2 °F 73.4 °F 94% 29.86 in 2.5 mi SSE 11.5 mph - N/A Rain Light Rain Showers
7:00 AM 76 °F 73 °F 88% 29.88 in - SSW 10.4 mph - -  
7:00 AM 77.0 °F 73.4 °F 89% 29.86 in 3.7 mi SSW 10.4 mph - N/A Rain Light Rain Showers
7:30 AM 77.0 °F 73.4 °F 89% 29.86 in 3.1 mi South 9.2 mph - N/A Rain Rain Showers
8:00 AM 75.2 °F 73.4 °F 94% 29.89 in 3.7 mi SSE 9.2 mph - N/A Rain Rain Showers
8:22 AM 77.0 °F 73.4 °F 89% 29.89 in 5.0 mi South 8.1 mph - N/A Rain Light Rain Showers
8:30 AM 77.0 °F 73.4 °F 89% 29.89 in 4.3 mi South 10.4 mph - N/A Rain Light Rain Showers
8:50 AM 77.0 °F 73.4 °F 89% 29.89 in 5.6 mi South 10.4 mph - N/A   Mostly Cloudy
9:00 AM 77 °F 74 °F 87% 29.91 in 4 mi South 10.4 mph - - Rain Light Rain Showers
9:00 AM 77.0 °F 73.4 °F 89% 29.89 in 4.3 mi South 10.4 mph - N/A Rain Light Rain Showers
9:30 AM 77.0 °F 75.2 °F 94% 29.89 in 5.0 mi South 9.2 mph - N/A Rain Light Rain Showers
9:38 AM 77.0 °F 75.2 °F 94% 29.92 in 4.3 mi SSE 9.2 mph - N/A Rain Rain Showers
9:59 AM 77.0 °F 75.2 °F 94% 29.92 in 6.2 mi SSE 12.7 mph - N/A   Mostly Cloudy
10:18 AM 78.8 °F 75.2 °F 89% 29.92 in 6.2 mi South 12.7 mph - N/A   Mostly Cloudy
10:30 AM 78.8 °F 75.2 °F 89% 29.92 in 6.2 mi SSE 11.5 mph - N/A   Mostly Cloudy
10:41 AM 78.8 °F 75.2 °F 89% 29.89 in 6.2 mi SSE 15.0 mph - N/A Rain Rain Showers
11:00 AM 77.0 °F 75.2 °F 94% 29.89 in 6.2 mi SSE 16.1 mph - N/A Rain Light Rain Showers
11:11 AM 77.0 °F 73.4 °F 89% 29.89 in 6.2 mi SSE 17.3 mph - N/A   Mostly Cloudy
11:30 AM 78.8 °F 73.4 °F 83% 29.89 in 6.2 mi SSE 16.1 mph - N/A   Mostly Cloudy
12:00 PM 78 °F 73 °F 81% 29.89 in - South 11.5 mph - -   Overcast
12:00 PM 78.8 °F 73.4 °F 83% 29.89 in 6.2 mi South 11.5 mph - N/A   Mostly Cloudy
12:30 PM 78.8 °F 75.2 °F 89% 29.86 in 5.0 mi South 11.5 mph - N/A Rain Light Rain Showers
1:00 PM 78 °F 73 °F 81% 29.87 in - South 10.4 mph - -  
1:00 PM 78.8 °F 73.4 °F 83% 29.86 in 6.2 mi South 10.4 mph - N/A   Mostly Cloudy
1:30 PM 77.0 °F 73.4 °F 89% 29.83 in 6.2 mi South 12.7 mph - N/A   Mostly Cloudy
2:00 PM 77.0 °F 73.4 °F 89% 29.83 in 5.0 mi South 10.4 mph - N/A Rain Light Rain Showers
2:10 PM 77.0 °F 73.4 °F 89% 29.83 in 6.2 mi South 10.4 mph - N/A Rain Light Rain Showers
2:30 PM 78.8 °F 73.4 °F 83% 29.83 in 6.2 mi South 12.7 mph - N/A Rain Light Rain Showers
2:40 PM 77.0 °F 73.4 °F 89% 29.83 in 2.5 mi SSE 11.5 mph - N/A Rain Rain Showers
2:54 PM 75.2 °F 75.2 °F 100% 29.83 in 2.5 mi SE 9.2 mph - N/A Rain Rain Showers
3:00 PM 76 °F 75 °F 94% 29.84 in 2 mi SE 10.4 mph - - Rain Heavy Rain Showers
3:00 PM 75.2 °F 75.2 °F 100% 29.83 in 2.5 mi SE 10.4 mph - N/A Rain Rain Showers
3:30 PM 75.2 °F 73.4 °F 94% 29.83 in 3.7 mi SSE 13.8 mph - N/A Rain Rain Showers
4:00 PM 76 °F 74 °F 93% 29.85 in - SSE 10.4 mph - -  
4:00 PM 77.0 °F 75.2 °F 94% 29.83 in 3.7 mi SSE 10.4 mph - N/A Rain Light Rain Showers
4:19 PM 75.2 °F 73.4 °F 94% 29.83 in 3.7 mi SSE 13.8 mph - N/A   Heavy Drizzle
4:30 PM 75.2 °F 73.4 °F 94% 29.83 in 3.7 mi SSE 13.8 mph - N/A Rain Light Rain Showers
5:00 PM 75.2 °F 73.4 °F 94% 29.83 in 4.3 mi South 15.0 mph - N/A Rain Light Rain Showers
5:30 PM 75.2 °F 73.4 °F 94% 29.86 in 5.0 mi SSW 11.5 mph - N/A Rain Light Rain Showers
6:00 PM 75 °F 73 °F 92% 29.87 in - South 12.7 mph - -   Overcast
6:00 PM 75.2 °F 73.4 °F 94% 29.86 in 3.7 mi South 12.7 mph - N/A Rain Rain Showers
6:11 PM 75.2 °F 73.4 °F 94% 29.89 in 1.9 mi SSE 12.7 mph - N/A Rain Rain Showers
6:30 PM 73.4 °F 73.4 °F 100% 29.89 in 5.0 mi ESE 10.4 mph - N/A Rain Rain Showers
6:43 PM 75.2 °F 73.4 °F 94% 29.89 in 5.0 mi SSE 6.9 mph - N/A Rain Light Rain Showers
7:00 PM 74 °F 73 °F 96% 29.91 in - SE 4.6 mph - -  
7:00 PM 73.4 °F 73.4 °F 100% 29.89 in 6.2 mi SE 4.6 mph - N/A Rain Light Rain Showers
7:14 PM 75.2 °F 73.4 °F 94% 29.92 in 2.5 mi South 6.9 mph - N/A Rain Light Rain Showers
7:30 PM 75.2 °F 73.4 °F 94% 29.92 in 3.7 mi South 11.5 mph - N/A Rain Light Rain Showers
8:00 PM 75.2 °F 73.4 °F 94% 29.92 in 5.0 mi SSE 12.7 mph - N/A Rain Light Rain Showers
8:30 PM 75.2 °F 73.4 °F 94% 29.92 in 5.6 mi South 12.7 mph - N/A Rain Light Rain Showers
9:00 PM 76 °F 73 °F 88% 29.94 in - South 11.5 mph - -   Overcast
9:00 PM 75.2 °F 73.4 °F 94% 29.95 in 6.2 mi South 11.5 mph - N/A   Mostly Cloudy
9:27 PM 75.2 °F 73.4 °F 94% 29.95 in 3.7 mi South 11.5 mph - N/A Rain Light Rain Showers
9:30 PM 75.2 °F 73.4 °F 94% 29.95 in 3.7 mi South 10.4 mph - N/A Rain Light Rain Showers
10:00 PM 76 °F 73 °F 88% 29.96 in - South 10.4 mph - -  
10:00 PM 75.2 °F 73.4 °F 94% 29.95 in 6.2 mi South 10.4 mph - N/A   Mostly Cloudy
10:30 PM 77.0 °F 73.4 °F 89% 29.95 in 6.2 mi South 10.4 mph - N/A   Mostly Cloudy
11:00 PM 77.0 °F 71.6 °F 83% 29.92 in 6.2 mi South 11.5 mph - N/A Rain Light Rain Showers
11:30 PM 77.0 °F 71.6 °F 83% 29.92 in 6.2 mi South 9.2 mph - N/A Rain Light Rain Showers
11:49 PM 77.0 °F 71.6 °F 83% 29.92 in 3.7 mi South 10.4 mph - N/A Rain Light Rain Showers